VCP71 LEBL-LOWG

Flight info

Callsign VCP71
Flight time 1h 42m
Altitude 36000
Route AGENA M985 LUMAS UM976 SOSUR DCT SECON DCT STP DCT USANO DCT ALB DCT SES DCT MISPO DCT VEKEN DCT VIW DCT ABIRI ABIRI2M
Aircraft B738/M-SDE2E3FGHIRWXY/LB1

Departure

Time 2026-05-05 08:11
Airport Josep Tarradellas Barcelona-El Prat Airport (LEBL)

Arrival

Time 2026-05-05 09:53
Airport Graz Airport (LOWG)
Time Latitude Longitude Altitude Speed Heading
2026-05-05 07:53 41.29211 2.08116 13 ft 0 kts 156°
2026-05-05 08:02 41.29215 2.08113 13 ft 2 kts 156°
2026-05-05 08:02 41.29229 2.08105 13 ft 2 kts 155°
2026-05-05 08:03 41.29242 2.08097 13 ft 2 kts 156°
2026-05-05 08:03 41.29256 2.08088 14 ft 2 kts 155°
2026-05-05 08:03 41.29267 2.08082 14 ft 0 kts 156°
2026-05-05 08:03 41.29277 2.08073 14 ft 2 kts 115°
2026-05-05 08:04 41.29279 2.08054 14 ft 1 kts 72°
2026-05-05 08:04 41.29276 2.08048 14 ft 1 kts 62°
2026-05-05 08:04 41.29275 2.08044 14 ft 0 kts 64°
2026-05-05 08:06 41.29277 2.08051 14 ft 4 kts 64°
2026-05-05 08:06 41.29301 2.08122 15 ft 10 kts 65°
2026-05-05 08:06 41.29340 2.08234 15 ft 14 kts 65°
2026-05-05 08:07 41.29368 2.08351 15 ft 13 kts 104°
2026-05-05 08:07 41.29292 2.08425 13 ft 14 kts 157°
2026-05-05 08:07 41.29197 2.08482 12 ft 16 kts 155°
2026-05-05 08:07 41.29080 2.08552 13 ft 19 kts 156°
2026-05-05 08:08 41.28947 2.08632 15 ft 21 kts 156°
2026-05-05 08:08 41.28872 2.08737 16 ft 16 kts 85°
2026-05-05 08:08 41.28918 2.08892 18 ft 19 kts 66°
2026-05-05 08:08 41.28979 2.09069 19 ft 22 kts 65°
2026-05-05 08:09 41.29050 2.09278 19 ft 26 kts 65°
2026-05-05 08:09 41.29129 2.09508 19 ft 29 kts 65°
2026-05-05 08:09 41.29215 2.09757 21 ft 29 kts 65°
2026-05-05 08:09 41.29280 2.09948 21 ft 13 kts 71°
2026-05-05 08:10 41.29261 2.10076 23 ft 15 kts 114°
2026-05-05 08:10 41.29219 2.10202 24 ft 11 kts 163°
2026-05-05 08:10 41.29167 2.10171 25 ft 7 kts 234°
2026-05-05 08:10 41.29144 2.10101 25 ft 12 kts 246°
2026-05-05 08:11 41.28998 2.09673 25 ft 93 kts 245°
2026-05-05 08:11 41.28622 2.08567 18 ft 166 kts 244°
2026-05-05 08:11 41.28150 2.07141 811 ft 169 kts 246°
2026-05-05 08:11 41.27435 2.05933 1564 ft 179 kts 208°
2026-05-05 08:12 41.26226 2.05717 2129 ft 184 kts 161°
2026-05-05 08:12 41.25086 2.06556 2667 ft 194 kts 149°
2026-05-05 08:12 41.23846 2.07394 3167 ft 208 kts 148°
2026-05-05 08:12 41.22779 2.08784 3607 ft 227 kts 121°
2026-05-05 08:13 41.22252 2.10834 4121 ft 246 kts 101°
2026-05-05 08:13 41.21961 2.13116 4770 ft 259 kts 101°
2026-05-05 08:13 41.21635 2.15476 5652 ft 260 kts 103°
2026-05-05 08:13 41.21258 2.17837 6295 ft 272 kts 104°
2026-05-05 08:14 41.20831 2.20326 6997 ft 282 kts 105°
2026-05-05 08:14 41.20387 2.22871 7767 ft 288 kts 105°
2026-05-05 08:14 41.19936 2.25466 8550 ft 292 kts 106°
2026-05-05 08:14 41.19475 2.28128 9302 ft 298 kts 106°
2026-05-05 08:15 41.19014 2.30802 10089 ft 302 kts 107°
2026-05-05 08:15 41.18535 2.33566 10634 ft 315 kts 106°
2026-05-05 08:15 41.18037 2.36429 11098 ft 329 kts 106°
2026-05-05 08:15 41.17507 2.39469 11515 ft 346 kts 106°
2026-05-05 08:16 41.16958 2.42613 11946 ft 360 kts 106°
2026-05-05 08:16 41.16385 2.45911 12623 ft 367 kts 106°
2026-05-05 08:16 41.15812 2.49210 13319 ft 372 kts 106°
2026-05-05 08:16 41.15237 2.52590 13998 ft 379 kts 104°
2026-05-05 08:17 41.15042 2.56080 14632 ft 390 kts 87°
2026-05-05 08:17 41.15760 2.59581 15300 ft 398 kts 66°
2026-05-05 08:17 41.17041 2.62819 15866 ft 406 kts 60°
2026-05-05 08:17 41.18516 2.66052 16505 ft 411 kts 58°
2026-05-05 08:18 41.20042 2.69285 17130 ft 416 kts 58°
2026-05-05 08:18 41.21560 2.72530 17724 ft 421 kts 59°
2026-05-05 08:18 41.23094 2.75883 18333 ft 426 kts 59°
2026-05-05 08:18 41.24592 2.79233 18935 ft 430 kts 60°
2026-05-05 08:19 41.26114 2.82692 19508 ft 435 kts 60°
2026-05-05 08:19 41.27632 2.86178 20060 ft 440 kts 60°
2026-05-05 08:19 41.29171 2.89730 20587 ft 445 kts 60°
2026-05-05 08:19 41.30722 2.93318 21120 ft 449 kts 61°
2026-05-05 08:20 41.32280 2.96931 21631 ft 454 kts 60°
2026-05-05 08:20 41.33837 3.00545 22135 ft 458 kts 60°
2026-05-05 08:20 41.35435 3.04256 22644 ft 462 kts 60°
2026-05-05 08:20 41.37030 3.07963 23104 ft 467 kts 60°
2026-05-05 08:21 41.38656 3.11746 23564 ft 472 kts 60°
2026-05-05 08:21 41.40285 3.15539 24092 ft 474 kts 60°
2026-05-05 08:21 41.41920 3.19351 24561 ft 478 kts 60°
2026-05-05 08:21 41.43566 3.23194 25011 ft 482 kts 60°
2026-05-05 08:22 41.45225 3.27074 25460 ft 486 kts 60°
2026-05-05 08:22 41.46903 3.31000 25902 ft 489 kts 60°
2026-05-05 08:22 41.48584 3.34942 26329 ft 493 kts 60°
2026-05-05 08:22 41.50279 3.38921 26745 ft 497 kts 60°
2026-05-05 08:23 41.51955 3.42901 27162 ft 500 kts 62°
2026-05-05 08:23 41.53498 3.47071 27613 ft 502 kts 66°
2026-05-05 08:23 41.54781 3.51410 27979 ft 505 kts 72°
2026-05-05 08:23 41.55808 3.55900 28407 ft 506 kts 76°
2026-05-05 08:24 41.56659 3.60434 28783 ft 509 kts 79°
2026-05-05 08:24 41.57424 3.65067 29141 ft 512 kts 81°
2026-05-05 08:24 41.58147 3.69745 29514 ft 515 kts 81°
2026-05-05 08:24 41.58853 3.74413 29894 ft 517 kts 81°
2026-05-05 08:25 41.59576 3.79205 30243 ft 520 kts 81°
2026-05-05 08:25 41.60297 3.83935 30598 ft 522 kts 81°
2026-05-05 08:25 41.61026 3.88644 30990 ft 523 kts 80°
2026-05-05 08:25 41.61769 3.93386 31574 ft 519 kts 80°
2026-05-05 08:26 41.62519 3.98108 32119 ft 516 kts 80°
2026-05-05 08:26 41.63265 4.02783 32644 ft 513 kts 80°
2026-05-05 08:26 41.64004 4.07397 33103 ft 512 kts 80°
2026-05-05 08:26 41.64748 4.12047 33510 ft 511 kts 80°
2026-05-05 08:27 41.65482 4.16651 33935 ft 509 kts 80°
2026-05-05 08:27 41.66223 4.21309 34295 ft 509 kts 80°
2026-05-05 08:27 41.66949 4.25881 34640 ft 508 kts 80°
2026-05-05 08:27 41.67685 4.30526 34996 ft 506 kts 80°
2026-05-05 08:28 41.68407 4.35100 35315 ft 505 kts 80°
2026-05-05 08:28 41.69124 4.39655 35622 ft 504 kts 80°
2026-05-05 08:28 41.69841 4.44220 35914 ft 503 kts 80°
2026-05-05 08:28 41.70554 4.48777 35957 ft 506 kts 80°
2026-05-05 08:29 41.72553 4.57814 35962 ft 504 kts 64°
2026-05-05 08:29 41.74386 4.61798 35974 ft 504 kts 49°
2026-05-05 08:30 41.79539 4.67919 35972 ft 498 kts 30°
2026-05-05 08:30 41.85649 4.72057 35967 ft 488 kts 15°
2026-05-05 08:31 41.92100 4.74723 35965 ft 485 kts 10°
2026-05-05 08:31 41.98638 4.77040 35968 ft 485 kts 10°
2026-05-05 08:32 42.05128 4.79399 35965 ft 486 kts 11°
2026-05-05 08:32 42.11630 4.81889 35963 ft 486 kts 11°
2026-05-05 08:33 42.18132 4.84454 35960 ft 487 kts 11°
2026-05-05 08:33 42.24636 4.87053 35951 ft 489 kts 12°
2026-05-05 08:34 42.31142 4.89669 35953 ft 488 kts 12°
2026-05-05 08:34 42.37612 4.92279 35948 ft 487 kts 12°
2026-05-05 08:35 42.44154 4.94919 35952 ft 488 kts 12°
2026-05-05 08:35 42.50646 4.97543 35953 ft 488 kts 12°
2026-05-05 08:36 42.57158 5.00180 35955 ft 488 kts 12°
2026-05-05 08:36 42.63707 5.02792 35955 ft 490 kts 11°
2026-05-05 08:37 42.70217 5.05363 35947 ft 488 kts 11°
2026-05-05 08:37 42.76713 5.08352 35942 ft 499 kts 21°
2026-05-05 08:37 42.79694 5.10744 35946 ft 507 kts 35°
2026-05-05 08:38 42.82296 5.14038 35950 ft 511 kts 48°
2026-05-05 08:38 42.84362 5.17919 35952 ft 510 kts 59°
2026-05-05 08:38 42.86040 5.22165 35955 ft 509 kts 66°
2026-05-05 08:39 42.88737 5.31116 35947 ft 507 kts 71°
2026-05-05 08:39 42.91074 5.40143 35956 ft 506 kts 72°
2026-05-05 08:40 42.93362 5.49190 35946 ft 506 kts 72°
2026-05-05 08:40 42.95688 5.58263 35943 ft 506 kts 72°
2026-05-05 08:41 42.98025 5.67264 35955 ft 506 kts 72°
2026-05-05 08:41 43.00368 5.76235 35955 ft 504 kts 72°
2026-05-05 08:42 43.02722 5.85245 35943 ft 503 kts 72°
2026-05-05 08:42 43.05058 5.94220 35947 ft 503 kts 72°
2026-05-05 08:43 43.07391 6.03213 35946 ft 502 kts 72°
2026-05-05 08:43 43.09721 6.12231 35947 ft 503 kts 72°
2026-05-05 08:44 43.12038 6.21233 35944 ft 503 kts 72°
2026-05-05 08:44 43.14349 6.30240 35945 ft 503 kts 72°
2026-05-05 08:45 43.16662 6.39295 35942 ft 503 kts 72°
2026-05-05 08:45 43.18943 6.48264 35941 ft 503 kts 72°
2026-05-05 08:46 43.21349 6.57293 35932 ft 503 kts 68°
2026-05-05 08:46 43.24532 6.65800 35936 ft 505 kts 60°
2026-05-05 08:47 43.28233 6.73982 35932 ft 504 kts 57°
2026-05-05 08:47 43.32103 6.82068 35926 ft 506 kts 57°
2026-05-05 08:48 43.35932 6.90065 35929 ft 506 kts 57°
2026-05-05 08:48 43.39743 6.98135 35930 ft 505 kts 58°
2026-05-05 08:49 43.43572 7.06327 35932 ft 506 kts 58°
2026-05-05 08:49 43.47340 7.14445 35936 ft 504 kts 57°
2026-05-05 08:50 43.51075 7.22523 35938 ft 505 kts 57°
2026-05-05 08:50 43.54850 7.30711 35933 ft 504 kts 57°
2026-05-05 08:51 43.58613 7.38901 35941 ft 505 kts 57°
2026-05-05 08:51 43.62349 7.47046 35936 ft 503 kts 57°
2026-05-05 08:52 43.66090 7.55225 35935 ft 504 kts 57°
2026-05-05 08:52 43.69811 7.63383 35938 ft 504 kts 57°
2026-05-05 08:53 43.73749 7.71376 35947 ft 503 kts 51°
2026-05-05 08:53 43.78463 7.78516 35954 ft 500 kts 43°
2026-05-05 08:54 43.83504 7.85066 35951 ft 499 kts 40°
2026-05-05 08:54 43.88634 7.91560 35957 ft 498 kts 40°
2026-05-05 08:55 43.93695 7.98068 35956 ft 498 kts 41°
2026-05-05 08:55 43.98719 8.04642 35961 ft 497 kts 41°
2026-05-05 08:56 44.03691 8.11370 35961 ft 500 kts 45°
2026-05-05 08:56 44.08185 8.18718 35960 ft 500 kts 51°
2026-05-05 08:57 44.12380 8.26476 35959 ft 500 kts 52°
2026-05-05 08:57 44.16478 8.34298 35958 ft 501 kts 52°
2026-05-05 08:58 44.20573 8.42117 35958 ft 500 kts 52°
2026-05-05 08:58 44.24678 8.49922 35958 ft 499 kts 52°
2026-05-05 08:59 44.28795 8.57728 35956 ft 498 kts 52°
2026-05-05 08:59 44.32903 8.65516 35952 ft 498 kts 53°
2026-05-05 09:00 44.37009 8.73317 35955 ft 497 kts 53°
2026-05-05 09:00 44.41073 8.81054 35961 ft 496 kts 52°
2026-05-05 09:01 44.45113 8.88934 35960 ft 498 kts 54°
2026-05-05 09:01 44.49024 8.96919 35959 ft 499 kts 55°
2026-05-05 09:02 44.52908 9.04938 35952 ft 497 kts 55°
2026-05-05 09:02 44.56784 9.12946 35950 ft 495 kts 55°
2026-05-05 09:03 44.60649 9.20915 35959 ft 494 kts 55°
2026-05-05 09:03 44.64487 9.28827 35969 ft 494 kts 55°
2026-05-05 09:04 44.68356 9.36812 35971 ft 494 kts 55°
2026-05-05 09:04 44.72189 9.44743 35970 ft 491 kts 55°
2026-05-05 09:05 44.76041 9.52734 35970 ft 492 kts 55°
2026-05-05 09:05 44.79847 9.60651 35977 ft 489 kts 56°
2026-05-05 09:06 44.83691 9.68670 35980 ft 487 kts 56°
2026-05-05 09:06 44.87446 9.76524 35982 ft 487 kts 56°
2026-05-05 09:07 44.91215 9.84431 35976 ft 485 kts 56°
2026-05-05 09:07 44.94968 9.92322 35966 ft 483 kts 56°
2026-05-05 09:08 44.98712 10.00222 35968 ft 482 kts 57°
2026-05-05 09:08 45.02422 10.08071 35974 ft 482 kts 56°
2026-05-05 09:09 45.06182 10.15850 35970 ft 482 kts 55°
2026-05-05 09:09 45.10007 10.23579 35973 ft 480 kts 55°
2026-05-05 09:10 45.13856 10.31357 35993 ft 480 kts 55°
2026-05-05 09:10 45.17654 10.39072 35988 ft 479 kts 55°
2026-05-05 09:11 45.21442 10.46810 35989 ft 479 kts 55°
2026-05-05 09:11 45.25238 10.54601 35995 ft 478 kts 55°
2026-05-05 09:12 45.28995 10.62337 35987 ft 478 kts 56°
2026-05-05 09:12 45.32787 10.70162 35998 ft 478 kts 56°
2026-05-05 09:13 45.36536 10.77923 35988 ft 474 kts 56°
2026-05-05 09:13 45.40256 10.85645 35988 ft 476 kts 56°
2026-05-05 09:14 45.43993 10.93423 35998 ft 476 kts 56°
2026-05-05 09:14 45.47734 11.01229 35984 ft 475 kts 56°
2026-05-05 09:15 45.51467 11.09040 35990 ft 474 kts 56°
2026-05-05 09:15 45.55163 11.16799 35990 ft 474 kts 56°
2026-05-05 09:16 45.58859 11.24576 35996 ft 475 kts 56°
2026-05-05 09:16 45.62548 11.32361 35989 ft 474 kts 56°
2026-05-05 09:17 45.66240 11.40169 35983 ft 474 kts 56°
2026-05-05 09:17 45.69912 11.47960 35983 ft 473 kts 56°
2026-05-05 09:18 45.73581 11.55770 35982 ft 474 kts 56°
2026-05-05 09:18 45.77255 11.63608 35979 ft 474 kts 56°
2026-05-05 09:19 45.80945 11.71504 35995 ft 473 kts 57°
2026-05-05 09:19 45.84589 11.79321 35990 ft 473 kts 57°
2026-05-05 09:20 45.88237 11.87167 35990 ft 473 kts 57°
2026-05-05 09:20 45.91852 11.94958 35987 ft 472 kts 57°
2026-05-05 09:21 45.95490 12.02822 35991 ft 472 kts 57°
2026-05-05 09:21 45.99106 12.10665 35988 ft 472 kts 57°
2026-05-05 09:22 46.02728 12.18545 35986 ft 472 kts 57°
2026-05-05 09:22 46.06338 12.26426 35995 ft 474 kts 57°
2026-05-05 09:23 46.09962 12.34352 35998 ft 473 kts 57°
2026-05-05 09:23 46.13561 12.42247 36007 ft 472 kts 57°
2026-05-05 09:24 46.17160 12.50163 36004 ft 472 kts 57°
2026-05-05 09:24 46.20754 12.58090 36000 ft 471 kts 57°
2026-05-05 09:25 46.24331 12.66004 36002 ft 472 kts 58°
2026-05-05 09:25 46.27905 12.73932 36003 ft 470 kts 58°
2026-05-05 09:26 46.31461 12.81850 36004 ft 471 kts 58°
2026-05-05 09:26 46.35013 12.89777 36005 ft 470 kts 58°
2026-05-05 09:27 46.38552 12.97694 36004 ft 470 kts 58°
2026-05-05 09:27 46.42124 13.05707 36001 ft 470 kts 58°
2026-05-05 09:28 46.45694 13.13740 35996 ft 472 kts 58°
2026-05-05 09:28 46.49236 13.21732 35996 ft 471 kts 58°
2026-05-05 09:29 46.52768 13.29725 35998 ft 471 kts 57°
2026-05-05 09:29 46.56100 13.37882 35998 ft 471 kts 64°
2026-05-05 09:30 46.58698 13.46587 36001 ft 470 kts 69°
2026-05-05 09:30 46.60925 13.55475 35995 ft 471 kts 71°
2026-05-05 09:31 46.63080 13.64419 35642 ft 463 kts 71°
2026-05-05 09:31 46.64143 13.68825 35149 ft 461 kts 71°
2026-05-05 09:31 46.65210 13.73236 34458 ft 462 kts 71°
2026-05-05 09:31 46.66269 13.77600 33693 ft 463 kts 71°
2026-05-05 09:32 46.67348 13.82038 32933 ft 463 kts 71°
2026-05-05 09:32 46.68396 13.86454 32330 ft 459 kts 73°
2026-05-05 09:32 46.69257 13.90880 31888 ft 453 kts 77°
2026-05-05 09:32 46.69875 13.95346 31404 ft 447 kts 81°
2026-05-05 09:33 46.70305 13.99807 30905 ft 444 kts 84°
2026-05-05 09:33 46.70634 14.04292 30414 ft 450 kts 85°
2026-05-05 09:33 46.70921 14.08796 29899 ft 451 kts 85°
2026-05-05 09:33 46.71195 14.13318 29387 ft 446 kts 85°
2026-05-05 09:34 46.71461 14.17783 28884 ft 441 kts 85°
2026-05-05 09:34 46.71725 14.22179 28391 ft 436 kts 85°
2026-05-05 09:34 46.71988 14.26528 27888 ft 432 kts 85°
2026-05-05 09:34 46.72254 14.30880 27384 ft 427 kts 85°
2026-05-05 09:35 46.72514 14.35103 26910 ft 422 kts 84°
2026-05-05 09:35 46.73037 14.43525 25934 ft 413 kts 84°
2026-05-05 09:35 46.73293 14.47642 25455 ft 409 kts 84°
2026-05-05 09:36 46.73546 14.51722 24963 ft 405 kts 84°
2026-05-05 09:36 46.73798 14.55795 24472 ft 401 kts 84°
2026-05-05 09:36 46.74045 14.59823 23999 ft 396 kts 84°
2026-05-05 09:36 46.74287 14.63787 23532 ft 392 kts 84°
2026-05-05 09:37 46.74526 14.67703 23066 ft 388 kts 85°
2026-05-05 09:37 46.74762 14.71591 22600 ft 384 kts 85°
2026-05-05 09:37 46.74992 14.75410 22138 ft 380 kts 85°
2026-05-05 09:37 46.75223 14.79238 21682 ft 377 kts 85°
2026-05-05 09:38 46.75450 14.83048 21226 ft 380 kts 85°
2026-05-05 09:38 46.75678 14.86900 20753 ft 382 kts 85°
2026-05-05 09:38 46.75906 14.90723 20287 ft 378 kts 85°
2026-05-05 09:38 46.76252 14.94506 19802 ft 375 kts 79°
2026-05-05 09:39 46.76944 14.98095 19331 ft 373 kts 69°
2026-05-05 09:39 46.78033 15.01482 18864 ft 369 kts 62°
2026-05-05 09:39 46.79292 15.04731 18375 ft 366 kts 60°
2026-05-05 09:39 46.80598 15.07882 17919 ft 362 kts 59°
2026-05-05 09:40 46.81913 15.11006 17470 ft 362 kts 59°
2026-05-05 09:40 46.83230 15.14166 16991 ft 367 kts 59°
2026-05-05 09:40 46.84526 15.17326 16506 ft 365 kts 60°
2026-05-05 09:40 46.85807 15.20491 16032 ft 362 kts 60°
2026-05-05 09:41 46.87074 15.23647 15554 ft 359 kts 60°
2026-05-05 09:41 46.88337 15.26763 15061 ft 357 kts 58°
2026-05-05 09:41 46.89840 15.29651 14557 ft 356 kts 44°
2026-05-05 09:41 46.91859 15.31688 14108 ft 354 kts 21°
2026-05-05 09:42 46.94200 15.32494 13673 ft 351 kts
2026-05-05 09:42 46.96617 15.32224 13212 ft 346 kts 347°
2026-05-05 09:42 46.98982 15.31578 12744 ft 344 kts 346°
2026-05-05 09:42 47.01313 15.30919 12290 ft 341 kts 346°
2026-05-05 09:43 47.03645 15.30265 11837 ft 339 kts 346°
2026-05-05 09:43 47.05959 15.29622 11384 ft 337 kts 346°
2026-05-05 09:43 47.08239 15.28990 10938 ft 335 kts 346°
2026-05-05 09:43 47.10518 15.28359 10550 ft 332 kts 346°
2026-05-05 09:44 47.12764 15.27738 10303 ft 325 kts 346°
2026-05-05 09:44 47.14952 15.27134 10192 ft 314 kts 346°
2026-05-05 09:44 47.17057 15.26553 10065 ft 304 kts 346°
2026-05-05 09:44 47.19120 15.25979 9703 ft 303 kts 346°
2026-05-05 09:45 47.21197 15.25397 9249 ft 305 kts 346°
2026-05-05 09:45 47.23266 15.24819 8924 ft 299 kts 346°
2026-05-05 09:45 47.25276 15.24292 8801 ft 286 kts 349°
2026-05-05 09:45 47.27211 15.24177 8716 ft 275 kts
2026-05-05 09:46 47.28952 15.25119 8600 ft 265 kts 37°
2026-05-05 09:46 47.30138 15.27115 8302 ft 258 kts 65°
2026-05-05 09:46 47.30690 15.29576 7974 ft 251 kts 82°
2026-05-05 09:46 47.30813 15.32103 7676 ft 241 kts 104°
2026-05-05 09:47 47.30105 15.34181 7490 ft 221 kts 138°
2026-05-05 09:47 47.28896 15.35464 7157 ft 215 kts 159°
2026-05-05 09:47 47.27484 15.36153 6823 ft 212 kts 170°
2026-05-05 09:47 47.26046 15.36558 6532 ft 209 kts 173°
2026-05-05 09:48 47.24618 15.36920 6228 ft 208 kts 173°
2026-05-05 09:48 47.23199 15.37301 5937 ft 205 kts 172°
2026-05-05 09:48 47.21810 15.37690 5629 ft 202 kts 172°
2026-05-05 09:48 47.20443 15.38073 5409 ft 196 kts 172°
2026-05-05 09:49 47.19115 15.38444 5111 ft 194 kts 172°
2026-05-05 09:49 47.17812 15.38804 4969 ft 184 kts 172°
2026-05-05 09:49 47.16598 15.39140 4939 ft 178 kts 172°
2026-05-05 09:49 47.15351 15.39481 4639 ft 185 kts 172°
2026-05-05 09:50 47.14081 15.39830 4304 ft 186 kts 172°
2026-05-05 09:50 47.12822 15.40180 4024 ft 185 kts 172°
2026-05-05 09:50 47.11556 15.40529 3736 ft 183 kts 172°
2026-05-05 09:50 47.10341 15.40867 3477 ft 169 kts 172°
2026-05-05 09:51 47.09228 15.41178 3194 ft 159 kts 172°
2026-05-05 09:51 47.08171 15.41464 2961 ft 154 kts 171°
2026-05-05 09:51 47.07134 15.41747 2732 ft 147 kts 172°
2026-05-05 09:51 47.06150 15.42021 2521 ft 145 kts 171°
2026-05-05 09:52 47.05175 15.42292 2285 ft 142 kts 172°
2026-05-05 09:52 47.04216 15.42550 2072 ft 141 kts 170°
2026-05-05 09:52 47.03253 15.42803 1847 ft 141 kts 172°
2026-05-05 09:52 47.02280 15.43060 1630 ft 141 kts 167°
2026-05-05 09:53 47.01328 15.43348 1411 ft 140 kts 166°
2026-05-05 09:53 47.00367 15.43615 1203 ft 141 kts 169°
2026-05-05 09:53 46.99438 15.43875 1104 ft 123 kts 170°
2026-05-05 09:53 46.98847 15.44037 1100 ft 48 kts 171°
2026-05-05 09:54 46.98620 15.44082 1100 ft 18 kts 177°
2026-05-05 09:54 46.98591 15.44112 1099 ft 5 kts 29°
2026-05-05 09:54 46.98663 15.44090 1099 ft 16 kts 342°
2026-05-05 09:54 46.98817 15.44044 1100 ft 28 kts 349°
2026-05-05 09:55 46.99057 15.43977 1101 ft 40 kts 349°
2026-05-05 09:55 46.99221 15.43944 1102 ft 11 kts 13°
2026-05-05 09:55 46.99298 15.44033 1101 ft 16 kts 46°
2026-05-05 09:55 46.99386 15.44169 1102 ft 19 kts 45°
2026-05-05 09:56 46.99458 15.44260 1104 ft 7 kts
2026-05-05 09:56 46.99495 15.44308 1104 ft 6 kts 73°
2026-05-05 09:56 46.99493 15.44360 1105 ft 4 kts 134°
2026-05-05 09:56 46.99474 15.44368 1104 ft 0 kts 173°